Time,TemperatureF,DewpointF,PressureIn,WindDirection,WindDirectionDegrees,WindSpeedMPH,WindSpeedGustMPH,Humidity,HourlyPrecipIn,Conditions,Clouds,dailyrainin,SoftwareType,DateUTC
2013-06-02 00:00:00,56.5,54.8,29.83,WNW,292,0.0,0.0,94,0.00,,,0.01,Custom v0.1,2013-06-02 05:00:00,
2013-06-02 00:05:00,56.9,54.9,29.84,WNW,292,0.0,0.0,93,0.00,,,0.00,Custom v0.1,2013-06-02 05:05:00,
2013-06-02 00:10:00,56.9,54.6,29.84,WNW,292,0.0,0.0,92,0.00,,,0.00,Custom v0.1,2013-06-02 05:10:00,
2013-06-02 00:15:00,56.7,54.4,29.84,WNW,292,0.0,0.0,92,0.00,,,0.00,Custom v0.1,2013-06-02 05:15:00,
2013-06-02 00:20:00,56.7,54.4,29.83,WNW,292,0.0,0.0,92,0.00,,,0.00,Custom v0.1,2013-06-02 05:20:00,
2013-06-02 00:25:00,56.7,54.4,29.83,WNW,292,0.0,0.0,92,0.00,,,0.00,Custom v0.1,2013-06-02 05:25:00,
2013-06-02 00:30:00,56.7,54.1,29.83,WNW,292,0.0,0.0,91,0.00,,,0.00,Custom v0.1,2013-06-02 05:30:00,
2013-06-02 00:35:00,56.7,54.4,29.84,WNW,292,0.0,0.0,92,0.00,,,0.00,Custom v0.1,2013-06-02 05:35:00,
2013-06-02 00:40:00,56.9,54.6,29.84,WNW,292,0.0,0.0,92,0.00,,,0.00,Custom v0.1,2013-06-02 05:40:00,
2013-06-02 00:45:00,57.0,54.7,29.84,WNW,292,0.0,0.0,92,0.00,,,0.00,Custom v0.1,2013-06-02 05:45:00,
2013-06-02 00:50:00,57.0,54.4,29.84,WNW,292,0.0,0.0,91,0.00,,,0.00,Custom v0.1,2013-06-02 05:50:00,
2013-06-02 00:55:00,57.0,54.4,29.84,WNW,292,0.0,0.0,91,0.00,,,0.00,Custom v0.1,2013-06-02 05:55:00,
2013-06-02 01:00:00,57.2,54.6,29.84,WNW,292,0.0,0.0,91,0.00,,,0.00,Custom v0.1,2013-06-02 06:00:00,
2013-06-02 01:05:00,57.3,54.7,29.84,WNW,292,0.0,0.0,91,0.00,,,0.00,Custom v0.1,2013-06-02 06:05:00,
2013-06-02 01:15:00,58.0,55.4,29.84,WNW,292,0.0,0.0,91,0.00,,,0.00,Custom v0.1,2013-06-02 06:15:00,
2013-06-02 01:20:00,58.3,55.3,29.84,WNW,292,0.0,0.0,90,0.00,,,0.00,Custom v0.1,2013-06-02 06:20:00,
2013-06-02 01:25:00,58.6,55.6,29.84,WNW,292,0.0,0.0,90,0.00,,,0.00,Custom v0.1,2013-06-02 06:25:00,
2013-06-02 01:30:00,58.7,55.4,29.84,WNW,292,0.0,0.0,89,0.00,,,0.00,Custom v0.1,2013-06-02 06:30:00,
2013-06-02 01:35:00,58.6,55.0,29.85,WSW,258,0.0,0.0,88,0.00,,,0.00,Custom v0.1,2013-06-02 06:35:00,
2013-06-02 01:40:00,58.4,54.8,29.85,WSW,258,0.0,0.0,88,0.00,,,0.00,Custom v0.1,2013-06-02 06:40:00,
2013-06-02 01:45:00,58.3,54.7,29.85,WSW,258,0.0,0.0,88,0.00,,,0.00,Custom v0.1,2013-06-02 06:45:00,
2013-06-02 01:50:00,58.1,54.8,29.85,West,272,0.0,0.0,89,0.00,,,0.00,Custom v0.1,2013-06-02 06:50:00,
2013-06-02 01:55:00,58.0,54.8,29.85,WNW,289,0.0,0.0,89,0.00,,,0.00,Custom v0.1,2013-06-02 06:55:00,
2013-06-02 02:00:00,58.0,54.8,29.85,WNW,286,0.0,0.0,89,0.00,,,0.00,Custom v0.1,2013-06-02 07:00:00,
2013-06-02 02:05:00,58.0,54.8,29.85,WNW,286,0.0,0.0,89,0.00,,,0.00,Custom v0.1,2013-06-02 07:05:00,
2013-06-02 02:10:00,58.1,54.8,29.85,WNW,286,0.0,0.0,89,0.00,,,0.00,Custom v0.1,2013-06-02 07:10:00,
2013-06-02 02:15:00,58.1,54.8,29.85,WNW,289,0.0,0.0,89,0.00,,,0.00,Custom v0.1,2013-06-02 07:15:00,
2013-06-02 02:20:00,58.3,54.7,29.86,NNW,333,0.0,0.0,88,0.00,,,0.00,Custom v0.1,2013-06-02 07:20:00,
2013-06-02 02:25:00,58.4,54.5,29.86,NNW,337,0.0,0.0,87,0.00,,,0.00,Custom v0.1,2013-06-02 07:25:00,
2013-06-02 02:30:00,58.6,54.1,29.86,WNW,292,0.0,0.0,85,0.00,,,0.00,Custom v0.1,2013-06-02 07:30:00,
2013-06-02 02:35:00,58.9,54.1,29.86,North,4,0.0,0.0,84,0.00,,,0.00,Custom v0.1,2013-06-02 07:35:00,
2013-06-02 02:40:00,59.0,53.5,29.86,WNW,299,0.0,0.0,82,0.00,,,0.00,Custom v0.1,2013-06-02 07:40:00,
2013-06-02 02:45:00,59.0,53.5,29.86,WNW,292,0.0,0.0,82,0.00,,,0.00,Custom v0.1,2013-06-02 07:45:00,
2013-06-02 02:50:00,59.0,53.2,29.86,West,264,0.0,0.0,81,0.00,,,0.00,Custom v0.1,2013-06-02 07:50:00,
2013-06-02 02:55:00,59.0,53.2,29.86,NNW,334,0.0,0.0,81,0.00,,,0.00,Custom v0.1,2013-06-02 07:55:00,
2013-06-02 03:00:00,58.9,52.8,29.86,WNW,292,0.0,0.0,80,0.00,,,0.00,Custom v0.1,2013-06-02 08:00:00,
2013-06-02 03:10:00,58.9,52.8,29.86,NW,306,0.0,0.0,80,0.00,,,0.00,Custom v0.1,2013-06-02 08:10:00,
2013-06-02 03:15:00,58.9,52.8,29.86,NW,310,0.0,0.0,80,0.00,,,0.00,Custom v0.1,2013-06-02 08:15:00,
2013-06-02 03:20:00,58.9,52.8,29.87,NW,326,0.0,0.0,80,0.00,,,0.00,Custom v0.1,2013-06-02 08:20:00,
2013-06-02 03:25:00,58.9,52.8,29.87,NW,323,0.0,0.0,80,0.00,,,0.00,Custom v0.1,2013-06-02 08:25:00,
2013-06-02 03:30:00,58.7,52.9,29.87,NW,323,0.0,0.0,81,0.00,,,0.00,Custom v0.1,2013-06-02 08:30:00,
2013-06-02 03:35:00,58.7,52.9,29.87,WNW,293,0.0,0.0,81,0.00,,,0.00,Custom v0.1,2013-06-02 08:35:00,
2013-06-02 03:40:00,58.6,53.2,29.87,WNW,295,0.0,0.0,82,0.00,,,0.00,Custom v0.1,2013-06-02 08:40:00,
2013-06-02 03:45:00,58.4,52.6,29.87,WNW,295,0.0,0.0,81,0.00,,,0.00,Custom v0.1,2013-06-02 08:45:00,
2013-06-02 03:50:00,58.4,52.6,29.87,NW,322,0.0,0.0,81,0.00,,,0.00,Custom v0.1,2013-06-02 08:50:00,
2013-06-02 03:55:00,58.3,52.5,29.87,NW,322,0.0,0.0,81,0.00,,,0.00,Custom v0.1,2013-06-02 08:55:00,
2013-06-02 04:05:00,58.1,52.7,29.87,WNW,303,0.0,0.0,82,0.00,,,0.00,Custom v0.1,2013-06-02 09:05:00,
2013-06-02 04:10:00,58.1,52.3,29.87,NW,306,0.0,0.0,81,0.00,,,0.00,Custom v0.1,2013-06-02 09:10:00,
2013-06-02 04:15:00,58.0,52.2,29.87,WNW,298,0.0,0.0,81,0.00,,,0.00,Custom v0.1,2013-06-02 09:15:00,
2013-06-02 04:20:00,58.0,52.2,29.87,WNW,295,0.0,0.0,81,0.00,,,0.00,Custom v0.1,2013-06-02 09:20:00,
2013-06-02 04:25:00,58.0,52.2,29.87,NW,305,1.0,1.0,81,0.00,,,0.00,Custom v0.1,2013-06-02 09:25:00,
2013-06-02 04:30:00,57.8,51.7,29.87,WNW,293,0.0,0.0,80,0.00,,,0.00,Custom v0.1,2013-06-02 09:30:00,
2013-06-02 04:35:00,57.8,52.0,29.88,West,278,0.0,0.0,81,0.00,,,0.00,Custom v0.1,2013-06-02 09:35:00,
2013-06-02 04:40:00,57.8,52.0,29.88,NW,323,0.0,0.0,81,0.00,,,0.00,Custom v0.1,2013-06-02 09:40:00,
2013-06-02 04:45:00,57.6,51.9,29.88,West,269,1.0,2.0,81,0.00,,,0.00,Custom v0.1,2013-06-02 09:45:00,
2013-06-02 04:50:00,57.6,51.9,29.88,NNW,336,0.0,0.0,81,0.00,,,0.00,Custom v0.1,2013-06-02 09:50:00,
2013-06-02 05:00:00,57.5,52.4,29.88,WNW,282,0.0,0.0,83,0.00,,,0.00,Custom v0.1,2013-06-02 10:00:00,
2013-06-02 05:05:00,57.5,52.4,29.88,WNW,284,0.0,0.0,83,0.00,,,0.00,Custom v0.1,2013-06-02 10:05:00,
2013-06-02 05:10:00,57.3,52.5,29.88,WNW,284,0.0,0.0,84,0.00,,,0.00,Custom v0.1,2013-06-02 10:10:00,
2013-06-02 05:15:00,57.2,52.4,29.88,West,281,0.0,0.0,84,0.00,,,0.00,Custom v0.1,2013-06-02 10:15:00,
2013-06-02 05:20:00,57.2,52.4,29.89,WNW,285,0.0,0.0,84,0.00,,,0.00,Custom v0.1,2013-06-02 10:20:00,
2013-06-02 05:25:00,57.0,52.2,29.89,NW,308,0.0,0.0,84,0.00,,,0.00,Custom v0.1,2013-06-02 10:25:00,
2013-06-02 05:30:00,57.0,52.2,29.89,NW,308,0.0,0.0,84,0.00,,,0.00,Custom v0.1,2013-06-02 10:30:00,
2013-06-02 05:35:00,57.0,52.2,29.89,NW,310,0.0,0.0,84,0.00,,,0.00,Custom v0.1,2013-06-02 10:35:00,
2013-06-02 05:40:00,57.0,52.2,29.89,NW,310,0.0,0.0,84,0.00,,,0.00,Custom v0.1,2013-06-02 10:40:00,
2013-06-02 05:45:00,57.0,52.2,29.89,NW,310,0.0,0.0,84,0.00,,,0.00,Custom v0.1,2013-06-02 10:45:00,
2013-06-02 05:50:00,57.0,52.5,29.89,NW,310,0.0,0.0,85,0.00,,,0.00,Custom v0.1,2013-06-02 10:50:00,
2013-06-02 05:55:00,57.0,52.5,29.89,NW,316,0.0,0.0,85,0.00,,,0.00,Custom v0.1,2013-06-02 10:55:00,
2013-06-02 06:00:00,57.0,52.5,29.89,NW,320,0.0,0.0,85,0.00,,,0.00,Custom v0.1,2013-06-02 11:00:00,
2013-06-02 06:05:00,57.0,52.2,29.89,NNW,327,0.0,0.0,84,0.00,,,0.00,Custom v0.1,2013-06-02 11:05:00,
2013-06-02 06:15:00,57.0,52.2,29.89,NW,309,0.0,0.0,84,0.00,,,0.00,Custom v0.1,2013-06-02 11:15:00,
2013-06-02 06:20:00,57.0,51.9,29.90,NW,310,0.0,0.0,83,0.00,,,0.00,Custom v0.1,2013-06-02 11:20:00,
2013-06-02 06:25:00,57.2,52.1,29.90,NW,320,0.0,0.0,83,0.00,,,0.00,Custom v0.1,2013-06-02 11:25:00,
2013-06-02 06:30:00,57.2,51.8,29.90,NW,315,1.0,1.0,82,0.00,,,0.00,Custom v0.1,2013-06-02 11:30:00,
2013-06-02 06:35:00,57.2,51.8,29.90,WNW,291,0.0,1.0,82,0.00,,,0.00,Custom v0.1,2013-06-02 11:35:00,
2013-06-02 06:40:00,57.2,51.5,29.90,NNW,336,0.0,0.0,81,0.00,,,0.00,Custom v0.1,2013-06-02 11:40:00,
2013-06-02 06:45:00,57.2,51.5,29.90,NNW,336,0.0,0.0,81,0.00,,,0.00,Custom v0.1,2013-06-02 11:45:00,
2013-06-02 06:50:00,57.2,51.5,29.91,WNW,291,1.0,2.0,81,0.00,,,0.00,Custom v0.1,2013-06-02 11:50:00,
2013-06-02 06:55:00,57.2,51.5,29.91,WNW,298,0.0,0.0,81,0.00,,,0.00,Custom v0.1,2013-06-02 11:55:00,
2013-06-02 07:00:00,57.2,51.5,29.91,NW,316,0.0,0.0,81,0.00,,,0.00,Custom v0.1,2013-06-02 12:00:00,
2013-06-02 07:05:00,57.2,51.5,29.91,NW,324,0.0,0.0,81,0.00,,,0.00,Custom v0.1,2013-06-02 12:05:00,
2013-06-02 07:10:00,57.2,51.5,29.91,WNW,289,0.0,3.0,81,0.00,,,0.00,Custom v0.1,2013-06-02 12:10:00,
2013-06-02 07:15:00,57.2,51.5,29.91,NW,316,0.0,0.0,81,0.00,,,0.00,Custom v0.1,2013-06-02 12:15:00,
2013-06-02 07:20:00,57.2,51.8,29.92,NW,317,0.0,0.0,82,0.00,,,0.00,Custom v0.1,2013-06-02 12:20:00,
2013-06-02 07:25:00,57.2,51.5,29.92,West,278,0.0,0.0,81,0.00,,,0.00,Custom v0.1,2013-06-02 12:25:00,
2013-06-02 07:30:00,57.3,51.6,29.92,NW,305,0.0,0.0,81,0.00,,,0.00,Custom v0.1,2013-06-02 12:30:00,
2013-06-02 07:35:00,57.3,51.6,29.93,NW,316,0.0,0.0,81,0.00,,,0.00,Custom v0.1,2013-06-02 12:35:00,
2013-06-02 07:40:00,57.3,51.6,29.93,NW,326,0.0,0.0,81,0.00,,,0.00,Custom v0.1,2013-06-02 12:40:00,
2013-06-02 07:45:00,57.5,51.8,29.93,WNW,302,0.0,0.0,81,0.00,,,0.00,Custom v0.1,2013-06-02 12:45:00,
2013-06-02 07:50:00,57.5,51.8,29.93,NNW,327,0.0,0.0,81,0.00,,,0.00,Custom v0.1,2013-06-02 12:50:00,
2013-06-02 07:55:00,57.5,51.4,29.93,NW,326,0.0,0.0,80,0.00,,,0.00,Custom v0.1,2013-06-02 12:55:00,
2013-06-02 08:00:00,57.6,51.5,29.93,NNW,330,0.0,0.0,80,0.00,,,0.00,Custom v0.1,2013-06-02 13:00:00,
2013-06-02 08:05:00,57.8,51.7,29.93,NNW,332,0.0,0.0,80,0.00,,,0.00,Custom v0.1,2013-06-02 13:05:00,
2013-06-02 08:10:00,58.0,51.9,29.93,NW,308,3.0,3.0,80,0.00,,,0.00,Custom v0.1,2013-06-02 13:10:00,
2013-06-02 08:15:00,58.1,52.0,29.93,West,262,0.0,0.0,80,0.00,,,0.00,Custom v0.1,2013-06-02 13:15:00,
2013-06-02 08:20:00,58.3,52.2,29.93,WNW,286,0.0,0.0,80,0.00,,,0.00,Custom v0.1,2013-06-02 13:20:00,
2013-06-02 08:25:00,58.3,51.9,29.93,NNW,329,0.0,0.0,79,0.00,,,0.00,Custom v0.1,2013-06-02 13:25:00,
2013-06-02 08:30:00,58.3,51.9,29.93,NNW,340,2.0,2.0,79,0.00,,,0.00,Custom v0.1,2013-06-02 13:30:00,
2013-06-02 08:35:00,58.3,51.9,29.94,WNW,289,0.0,0.0,79,0.00,,,0.00,Custom v0.1,2013-06-02 13:35:00,
2013-06-02 08:40:00,58.3,52.2,29.94,WNW,300,0.0,0.0,80,0.00,,,0.00,Custom v0.1,2013-06-02 13:40:00,
2013-06-02 08:45:00,58.3,52.5,29.94,WNW,295,0.0,0.0,81,0.00,,,0.00,Custom v0.1,2013-06-02 13:45:00,
2013-06-02 08:50:00,58.3,52.2,29.94,West,278,0.0,1.0,80,0.00,,,0.00,Custom v0.1,2013-06-02 13:50:00,
2013-06-02 08:55:00,58.3,52.2,29.94,WNW,295,0.0,1.0,80,0.00,,,0.00,Custom v0.1,2013-06-02 13:55:00,
2013-06-02 09:00:00,58.3,52.2,29.94,NNW,341,0.0,1.0,80,0.00,,,0.00,Custom v0.1,2013-06-02 14:00:00,
2013-06-02 09:10:00,58.3,52.2,29.94,North,5,0.0,0.0,80,0.00,,,0.00,Custom v0.1,2013-06-02 14:10:00,
2013-06-02 09:15:00,58.3,51.9,29.94,NW,313,0.0,0.0,79,0.00,,,0.00,Custom v0.1,2013-06-02 14:15:00,
2013-06-02 09:20:00,58.3,52.2,29.94,WNW,303,5.0,5.0,80,0.00,,,0.00,Custom v0.1,2013-06-02 14:20:00,
2013-06-02 09:25:00,58.4,52.0,29.94,WNW,298,0.0,0.0,79,0.00,,,0.00,Custom v0.1,2013-06-02 14:25:00,
2013-06-02 09:30:00,58.6,52.2,29.94,North,356,0.0,0.0,79,0.00,,,0.00,Custom v0.1,2013-06-02 14:30:00,
2013-06-02 09:35:00,58.6,52.2,29.94,WNW,289,0.0,0.0,79,0.00,,,0.00,Custom v0.1,2013-06-02 14:35:00,
2013-06-02 09:40:00,58.7,52.6,29.94,West,276,0.0,0.0,80,0.00,,,0.00,Custom v0.1,2013-06-02 14:40:00,
2013-06-02 09:45:00,58.6,52.2,29.94,WNW,296,0.0,0.0,79,0.00,,,0.00,Custom v0.1,2013-06-02 14:45:00,
2013-06-02 09:50:00,58.7,52.3,29.95,WNW,286,0.0,0.0,79,0.00,,,0.00,Custom v0.1,2013-06-02 14:50:00,
2013-06-02 09:55:00,58.6,52.2,29.95,NW,313,0.0,0.0,79,0.00,,,0.00,Custom v0.1,2013-06-02 14:55:00,
2013-06-02 10:00:00,58.4,52.0,29.95,NNW,344,0.0,0.0,79,0.00,,,0.00,Custom v0.1,2013-06-02 15:00:00,
2013-06-02 10:05:00,58.3,52.2,29.95,NW,309,0.0,0.0,80,0.00,,,0.00,Custom v0.1,2013-06-02 15:05:00,
2013-06-02 10:10:00,58.4,52.3,29.95,NW,312,0.0,0.0,80,0.00,,,0.00,Custom v0.1,2013-06-02 15:10:00,
2013-06-02 10:15:00,58.6,52.5,29.95,WNW,303,0.0,0.0,80,0.00,,,0.00,Custom v0.1,2013-06-02 15:15:00,
2013-06-02 10:20:00,58.4,51.6,29.95,NW,324,0.0,0.0,78,0.00,,,0.00,Custom v0.1,2013-06-02 15:20:00,
2013-06-02 10:25:00,58.6,52.5,29.95,North,4,0.0,0.0,80,0.00,,,0.00,Custom v0.1,2013-06-02 15:25:00,
2013-06-02 10:30:00,58.7,52.6,29.95,WSW,258,0.0,0.0,80,0.00,,,0.00,Custom v0.1,2013-06-02 15:30:00,
2013-06-02 10:35:00,58.9,52.1,29.95,NNW,333,0.0,0.0,78,0.00,,,0.00,Custom v0.1,2013-06-02 15:35:00,
2013-06-02 10:45:00,58.9,52.5,29.95,ESE,103,0.0,0.0,79,0.00,,,0.00,Custom v0.1,2013-06-02 15:45:00,
2013-06-02 10:50:00,58.7,52.9,29.96,WNW,285,0.0,0.0,81,0.00,,,0.00,Custom v0.1,2013-06-02 15:50:00,
2013-06-02 11:00:00,58.4,52.6,29.96,West,267,0.0,5.0,81,0.00,,,0.00,Custom v0.1,2013-06-02 16:00:00,
2013-06-02 11:05:00,58.9,53.1,29.96,NW,308,0.0,0.0,81,0.00,,,0.00,Custom v0.1,2013-06-02 16:05:00,
2013-06-02 11:10:00,59.2,52.8,29.96,NNW,348,0.0,0.0,79,0.00,,,0.00,Custom v0.1,2013-06-02 16:10:00,
2013-06-02 11:15:00,59.8,53.3,29.96,NW,309,0.0,0.0,79,0.00,,,0.00,Custom v0.1,2013-06-02 16:15:00,
2013-06-02 11:20:00,59.9,53.4,29.96,WNW,295,0.0,0.0,79,0.00,,,0.00,Custom v0.1,2013-06-02 16:20:00,
2013-06-02 11:25:00,59.3,53.2,29.96,West,279,0.0,0.0,80,0.00,,,0.00,Custom v0.1,2013-06-02 16:25:00,
2013-06-02 11:30:00,59.2,54.1,29.96,West,275,0.0,0.0,83,0.00,,,0.00,Custom v0.1,2013-06-02 16:30:00,
2013-06-02 11:35:00,58.7,52.9,29.96,WNW,296,0.0,0.0,81,0.00,,,0.00,Custom v0.1,2013-06-02 16:35:00,
2013-06-02 11:40:00,58.7,52.9,29.96,NW,317,0.0,1.0,81,0.00,,,0.00,Custom v0.1,2013-06-02 16:40:00,
2013-06-02 11:45:00,58.9,53.1,29.96,NW,312,0.0,0.0,81,0.00,,,0.00,Custom v0.1,2013-06-02 16:45:00,
2013-06-02 11:50:00,59.2,53.4,29.96,NNW,341,0.0,0.0,81,0.00,,,0.00,Custom v0.1,2013-06-02 16:50:00,
2013-06-02 11:55:00,59.5,53.4,29.96,NNW,341,0.0,0.0,80,0.00,,,0.00,Custom v0.1,2013-06-02 16:55:00,
2013-06-02 12:00:00,59.8,53.0,29.96,NNW,327,0.0,0.0,78,0.00,,,0.00,Custom v0.1,2013-06-02 17:00:00,
2013-06-02 12:05:00,59.8,52.3,29.96,WNW,295,0.0,0.0,76,0.00,,,0.00,Custom v0.1,2013-06-02 17:05:00,
2013-06-02 12:10:00,59.9,52.8,29.96,WNW,299,0.0,0.0,77,0.00,,,0.00,Custom v0.1,2013-06-02 17:10:00,
2013-06-02 12:15:00,60.2,52.7,29.96,NNW,334,0.0,0.0,76,0.00,,,0.00,Custom v0.1,2013-06-02 17:15:00,
2013-06-02 12:20:00,60.2,52.7,29.97,WNW,285,0.0,0.0,76,0.00,,,0.00,Custom v0.1,2013-06-02 17:20:00,
2013-06-02 12:25:00,59.9,52.4,29.97,West,271,2.0,2.0,76,0.00,,,0.00,Custom v0.1,2013-06-02 17:25:00,
2013-06-02 12:30:00,59.6,52.1,29.97,WNW,285,0.0,0.0,76,0.00,,,0.00,Custom v0.1,2013-06-02 17:30:00,
2013-06-02 12:35:00,59.3,51.8,29.97,NW,316,0.0,0.0,76,0.00,,,0.00,Custom v0.1,2013-06-02 17:35:00,
2013-06-02 12:40:00,59.3,52.2,29.97,WNW,286,1.0,1.0,77,0.00,,,0.00,Custom v0.1,2013-06-02 17:40:00,
2013-06-02 12:45:00,59.3,51.8,29.97,WNW,286,0.0,0.0,76,0.00,,,0.00,Custom v0.1,2013-06-02 17:45:00,
2013-06-02 12:50:00,59.3,52.2,29.97,WNW,288,0.0,0.0,77,0.00,,,0.00,Custom v0.1,2013-06-02 17:50:00,
2013-06-02 12:55:00,59.5,52.0,29.97,WNW,289,0.0,0.0,76,0.00,,,0.00,Custom v0.1,2013-06-02 17:55:00,
2013-06-02 13:00:00,59.6,52.1,29.97,WNW,295,0.0,0.0,76,0.00,,,0.00,Custom v0.1,2013-06-02 18:00:00,
2013-06-02 13:05:00,59.8,52.3,29.97,NNE,12,0.0,0.0,76,0.00,,,0.00,Custom v0.1,2013-06-02 18:05:00,
2013-06-02 13:10:00,59.9,52.1,29.97,North,353,0.0,0.0,75,0.00,,,0.00,Custom v0.1,2013-06-02 18:10:00,
2013-06-02 13:15:00,60.1,51.9,29.97,NNW,341,0.0,0.0,74,0.00,,,0.00,Custom v0.1,2013-06-02 18:15:00,
2013-06-02 13:20:00,60.2,52.0,29.97,NW,316,0.0,0.0,74,0.00,,,0.00,Custom v0.1,2013-06-02 18:20:00,
2013-06-02 13:30:00,60.9,51.9,29.97,NNW,339,0.0,0.0,72,0.00,,,0.00,Custom v0.1,2013-06-02 18:30:00,
2013-06-02 13:35:00,61.2,51.5,29.97,NW,320,0.0,0.0,70,0.00,,,0.00,Custom v0.1,2013-06-02 18:35:00,
2013-06-02 13:40:00,61.5,51.4,29.97,WNW,303,0.0,0.0,69,0.00,,,0.00,Custom v0.1,2013-06-02 18:40:00,
2013-06-02 13:45:00,62.1,52.7,29.97,North,353,5.0,5.0,71,0.00,,,0.00,Custom v0.1,2013-06-02 18:45:00,
2013-06-02 13:50:00,62.3,52.5,29.97,WNW,282,0.0,0.0,70,0.00,,,0.00,Custom v0.1,2013-06-02 18:50:00,
2013-06-02 13:55:00,62.4,53.4,29.97,West,281,0.0,0.0,72,0.00,,,0.00,Custom v0.1,2013-06-02 18:55:00,
2013-06-02 14:00:00,62.0,53.0,29.97,West,272,0.0,0.0,72,0.00,,,0.00,Custom v0.1,2013-06-02 19:00:00,
2013-06-02 14:05:00,61.8,51.7,29.97,NNW,336,0.0,0.0,69,0.00,,,0.00,Custom v0.1,2013-06-02 19:05:00,
2013-06-02 14:10:00,62.1,53.1,29.97,NNW,341,0.0,0.0,72,0.00,,,0.00,Custom v0.1,2013-06-02 19:10:00,
2013-06-02 14:15:00,62.4,51.9,29.97,WNW,293,1.0,1.0,68,0.00,,,0.00,Custom v0.1,2013-06-02 19:15:00,
2013-06-02 14:20:00,62.4,52.6,29.96,WNW,303,0.0,4.0,70,0.00,,,0.00,Custom v0.1,2013-06-02 19:20:00,
2013-06-02 14:25:00,62.6,53.2,29.96,NW,305,0.0,4.0,71,0.00,,,0.00,Custom v0.1,2013-06-02 19:25:00,
2013-06-02 14:30:00,62.6,53.2,29.96,WNW,298,0.0,4.0,71,0.00,,,0.00,Custom v0.1,2013-06-02 19:30:00,
2013-06-02 14:40:00,62.3,53.3,29.96,NW,313,0.0,0.0,72,0.00,,,0.00,Custom v0.1,2013-06-02 19:40:00,
2013-06-02 14:45:00,62.0,53.0,29.96,West,274,0.0,0.0,72,0.00,,,0.00,Custom v0.1,2013-06-02 19:45:00,
2013-06-02 14:50:00,62.0,53.4,29.95,WNW,298,0.0,0.0,73,0.00,,,0.00,Custom v0.1,2013-06-02 19:50:00,
2013-06-02 14:55:00,62.3,53.7,29.95,West,278,0.0,0.0,73,0.00,,,0.00,Custom v0.1,2013-06-02 19:55:00,
2013-06-02 15:05:00,62.9,54.2,29.95,WNW,285,0.0,0.0,73,0.00,,,0.00,Custom v0.1,2013-06-02 20:05:00,
2013-06-02 15:10:00,63.2,53.8,29.95,WNW,286,2.0,7.0,71,0.00,,,0.00,Custom v0.1,2013-06-02 20:10:00,
2013-06-02 15:15:00,63.4,53.6,29.95,NNW,340,0.0,0.0,70,0.00,,,0.00,Custom v0.1,2013-06-02 20:15:00,
2013-06-02 15:20:00,63.1,52.9,29.95,WNW,286,0.0,0.0,69,0.00,,,0.00,Custom v0.1,2013-06-02 20:20:00,
2013-06-02 15:25:00,63.1,54.1,29.95,West,278,0.0,0.0,72,0.00,,,0.00,Custom v0.1,2013-06-02 20:25:00,
2013-06-02 15:30:00,63.5,54.1,29.95,NNW,347,0.0,0.0,71,0.00,,,0.00,Custom v0.1,2013-06-02 20:30:00,
2013-06-02 15:35:00,64.0,54.6,29.94,NNW,344,0.0,0.0,71,0.00,,,0.00,Custom v0.1,2013-06-02 20:35:00,
2013-06-02 15:45:00,64.3,53.7,29.94,NW,309,0.0,0.0,68,0.00,,,0.00,Custom v0.1,2013-06-02 20:45:00,
2013-06-02 15:50:00,64.2,54.0,29.94,NW,312,0.0,0.0,69,0.00,,,0.00,Custom v0.1,2013-06-02 20:50:00,
2013-06-02 15:55:00,64.5,54.7,29.94,WNW,295,0.0,0.0,70,0.00,,,0.00,Custom v0.1,2013-06-02 20:55:00,
2013-06-02 16:00:00,65.2,52.9,29.94,WNW,288,1.0,2.0,64,0.00,,,0.00,Custom v0.1,2013-06-02 21:00:00,
2013-06-02 16:05:00,65.3,54.2,29.93,NNW,333,0.0,2.0,67,0.00,,,0.00,Custom v0.1,2013-06-02 21:05:00,
2013-06-02 16:15:00,65.3,54.2,29.93,WNW,300,0.0,0.0,67,0.00,,,0.00,Custom v0.1,2013-06-02 21:15:00,
2013-06-02 16:20:00,64.8,53.7,29.93,North,354,0.0,0.0,67,0.00,,,0.00,Custom v0.1,2013-06-02 21:20:00,
2013-06-02 16:25:00,64.5,54.3,29.93,North,351,2.0,2.0,69,0.00,,,0.00,Custom v0.1,2013-06-02 21:25:00,
2013-06-02 16:35:00,63.9,53.7,29.93,NNW,343,6.0,6.0,69,0.00,,,0.00,Custom v0.1,2013-06-02 21:35:00,
2013-06-02 16:40:00,63.9,53.7,29.93,NNW,341,0.0,0.0,69,0.00,,,0.00,Custom v0.1,2013-06-02 21:40:00,
2013-06-02 16:45:00,64.3,54.5,29.93,North,4,0.0,0.0,70,0.00,,,0.00,Custom v0.1,2013-06-02 21:45:00,
2013-06-02 16:50:00,64.7,54.5,29.92,WNW,289,0.0,0.0,69,0.00,,,0.00,Custom v0.1,2013-06-02 21:50:00,
2013-06-02 16:55:00,65.3,54.6,29.92,NNW,348,0.0,0.0,68,0.00,,,0.00,Custom v0.1,2013-06-02 21:55:00,
2013-06-02 17:00:00,65.6,53.3,29.92,WNW,299,0.0,0.0,64,0.00,,,0.00,Custom v0.1,2013-06-02 22:00:00,
2013-06-02 17:05:00,66.3,53.5,29.92,West,268,5.0,5.0,63,0.00,,,0.00,Custom v0.1,2013-06-02 22:05:00,
2013-06-02 17:10:00,66.0,53.6,29.92,NNW,337,0.0,2.0,64,0.00,,,0.00,Custom v0.1,2013-06-02 22:10:00,
2013-06-02 17:15:00,65.6,54.5,29.92,NNW,339,0.0,2.0,67,0.00,,,0.00,Custom v0.1,2013-06-02 22:15:00,
2013-06-02 17:20:00,65.6,54.1,29.92,NNW,341,0.0,0.0,66,0.00,,,0.00,Custom v0.1,2013-06-02 22:20:00,
2013-06-02 17:25:00,65.8,54.7,29.92,NNW,336,0.0,0.0,67,0.00,,,0.00,Custom v0.1,2013-06-02 22:25:00,
2013-06-02 17:30:00,66.0,54.9,29.92,NNW,341,0.0,0.0,67,0.00,,,0.00,Custom v0.1,2013-06-02 22:30:00,
2013-06-02 17:40:00,66.4,53.2,29.92,WNW,296,0.0,2.0,62,0.00,,,0.00,Custom v0.1,2013-06-02 22:40:00,
2013-06-02 17:45:00,66.3,53.9,29.92,West,272,0.0,2.0,64,0.00,,,0.00,Custom v0.1,2013-06-02 22:45:00,
2013-06-02 17:55:00,65.8,54.7,29.92,NNW,346,1.0,1.0,67,0.00,,,0.00,Custom v0.1,2013-06-02 22:55:00,
2013-06-02 18:00:00,65.8,53.5,29.92,North,357,0.0,0.0,64,0.00,,,0.00,Custom v0.1,2013-06-02 23:00:00,
2013-06-02 18:05:00,66.0,53.6,29.92,NW,308,0.0,0.0,64,0.00,,,0.00,Custom v0.1,2013-06-02 23:05:00,
2013-06-02 18:10:00,66.1,52.9,29.92,WNW,295,0.0,0.0,62,0.00,,,0.00,Custom v0.1,2013-06-02 23:10:00,
2013-06-02 18:20:00,65.6,51.5,29.92,WSW,250,2.0,2.0,60,0.00,,,0.00,Custom v0.1,2013-06-02 23:20:00,
2013-06-02 18:25:00,65.8,52.1,29.92,WNW,282,0.0,1.0,61,0.00,,,0.00,Custom v0.1,2013-06-02 23:25:00,
2013-06-02 18:35:00,66.3,51.2,29.92,NW,306,0.0,0.0,58,0.00,,,0.00,Custom v0.1,2013-06-02 23:35:00,
2013-06-02 18:40:00,66.6,51.5,29.92,NNW,340,2.0,2.0,58,0.00,,,0.00,Custom v0.1,2013-06-02 23:40:00,
2013-06-02 18:45:00,66.6,51.0,29.92,NW,322,1.0,1.0,57,0.00,,,0.00,Custom v0.1,2013-06-02 23:45:00,
2013-06-02 18:50:00,66.4,51.8,29.92,NW,316,0.0,1.0,59,0.00,,,0.00,Custom v0.1,2013-06-02 23:50:00,
2013-06-02 18:55:00,66.3,51.2,29.92,North,4,0.0,1.0,58,0.00,,,0.00,Custom v0.1,2013-06-02 23:55:00,
2013-06-02 19:00:00,66.0,51.9,29.92,North,4,0.0,1.0,60,0.00,,,0.00,Custom v0.1,2013-06-03 00:00:00,
2013-06-02 19:10:00,66.0,50.9,29.92,ENE,77,0.0,0.0,58,0.00,,,0.00,Custom v0.1,2013-06-03 00:10:00,
2013-06-02 19:15:00,66.1,51.0,29.92,NE,46,0.0,0.0,58,0.00,,,0.00,Custom v0.1,2013-06-03 00:15:00,
2013-06-02 19:20:00,65.8,50.8,29.92,WNW,302,0.0,0.0,58,0.00,,,0.00,Custom v0.1,2013-06-03 00:20:00,
2013-06-02 19:25:00,65.5,50.0,29.92,North,354,0.0,0.0,57,0.00,,,0.00,Custom v0.1,2013-06-03 00:25:00,
2013-06-02 19:30:00,65.3,49.3,29.92,North,4,0.0,0.0,56,0.00,,,0.00,Custom v0.1,2013-06-03 00:30:00,
2013-06-02 19:35:00,65.0,49.5,29.92,North,4,0.0,0.0,57,0.00,,,0.00,Custom v0.1,2013-06-03 00:35:00,
2013-06-02 19:40:00,64.3,50.3,29.92,North,4,0.0,0.0,60,0.00,,,0.00,Custom v0.1,2013-06-03 00:40:00,
2013-06-02 19:45:00,63.4,50.7,29.92,North,4,0.0,0.0,63,0.00,,,0.00,Custom v0.1,2013-06-03 00:45:00,
2013-06-02 19:50:00,62.6,50.8,29.92,North,4,0.0,0.0,65,0.00,,,0.00,Custom v0.1,2013-06-03 00:50:00,
2013-06-02 19:55:00,61.6,51.1,29.92,North,4,0.0,0.0,68,0.00,,,0.00,Custom v0.1,2013-06-03 00:55:00,
2013-06-02 20:05:00,60.4,51.1,29.92,North,4,0.0,0.0,71,0.00,,,0.00,Custom v0.1,2013-06-03 01:05:00,
2013-06-02 20:10:00,59.9,51.3,29.92,North,4,0.0,0.0,73,0.00,,,0.00,Custom v0.1,2013-06-03 01:10:00,
2013-06-02 20:15:00,59.5,51.3,29.92,North,4,0.0,0.0,74,0.00,,,0.00,Custom v0.1,2013-06-03 01:15:00,
2013-06-02 20:20:00,58.9,51.1,29.92,North,4,0.0,0.0,75,0.00,,,0.00,Custom v0.1,2013-06-03 01:20:00,
2013-06-02 20:25:00,58.4,51.0,29.92,North,4,0.0,0.0,76,0.00,,,0.00,Custom v0.1,2013-06-03 01:25:00,
2013-06-02 20:30:00,58.1,51.0,29.92,North,4,0.0,0.0,77,0.00,,,0.00,Custom v0.1,2013-06-03 01:30:00,
2013-06-02 20:40:00,57.0,50.9,29.92,North,4,0.0,0.0,80,0.00,,,0.00,Custom v0.1,2013-06-03 01:40:00,
2013-06-02 20:45:00,56.7,51.0,29.92,North,4,0.0,0.0,81,0.00,,,0.00,Custom v0.1,2013-06-03 01:45:00,
2013-06-02 20:50:00,56.3,50.9,29.92,North,4,0.0,0.0,82,0.00,,,0.00,Custom v0.1,2013-06-03 01:50:00,
2013-06-02 20:55:00,56.0,50.9,29.92,North,4,0.0,0.0,83,0.00,,,0.00,Custom v0.1,2013-06-03 01:55:00,
2013-06-02 21:05:00,55.4,50.7,29.92,North,4,0.0,0.0,84,0.00,,,0.00,Custom v0.1,2013-06-03 02:05:00,
2013-06-02 21:10:00,55.1,50.7,29.92,North,4,0.0,0.0,85,0.00,,,0.00,Custom v0.1,2013-06-03 02:10:00,
2013-06-02 21:15:00,55.0,50.9,29.92,North,4,0.0,0.0,86,0.00,,,0.00,Custom v0.1,2013-06-03 02:15:00,
2013-06-02 21:20:00,54.7,50.6,29.93,North,4,0.0,0.0,86,0.00,,,0.00,Custom v0.1,2013-06-03 02:20:00,
2013-06-02 21:25:00,54.5,50.4,29.93,North,4,0.0,0.0,86,0.00,,,0.00,Custom v0.1,2013-06-03 02:25:00,
2013-06-02 21:30:00,54.4,50.3,29.93,North,4,0.0,0.0,86,0.00,,,0.00,Custom v0.1,2013-06-03 02:30:00,
2013-06-02 21:35:00,54.4,50.3,29.93,North,4,0.0,0.0,86,0.00,,,0.00,Custom v0.1,2013-06-03 02:35:00,
2013-06-02 21:40:00,54.2,49.8,29.93,North,4,0.0,0.0,85,0.00,,,0.00,Custom v0.1,2013-06-03 02:40:00,
2013-06-02 21:45:00,54.1,50.0,29.93,North,4,0.0,0.0,86,0.00,,,0.00,Custom v0.1,2013-06-03 02:45:00,
2013-06-02 21:50:00,53.8,49.7,29.94,North,4,0.0,0.0,86,0.00,,,0.00,Custom v0.1,2013-06-03 02:50:00,
2013-06-02 21:55:00,53.6,49.5,29.94,North,4,0.0,0.0,86,0.00,,,0.00,Custom v0.1,2013-06-03 02:55:00,
2013-06-02 22:00:00,53.5,49.7,29.94,North,4,0.0,0.0,87,0.00,,,0.00,Custom v0.1,2013-06-03 03:00:00,
2013-06-02 22:05:00,53.2,49.4,29.94,North,4,0.0,0.0,87,0.00,,,0.00,Custom v0.1,2013-06-03 03:05:00,
2013-06-02 22:10:00,52.9,49.1,29.94,North,4,0.0,0.0,87,0.00,,,0.00,Custom v0.1,2013-06-03 03:10:00,
2013-06-02 22:15:00,52.8,49.0,29.94,North,4,0.0,0.0,87,0.00,,,0.00,Custom v0.1,2013-06-03 03:15:00,
2013-06-02 22:20:00,52.5,49.0,29.94,North,4,0.0,0.0,88,0.00,,,0.00,Custom v0.1,2013-06-03 03:20:00,
2013-06-02 22:25:00,52.3,48.8,29.94,North,4,0.0,0.0,88,0.00,,,0.00,Custom v0.1,2013-06-03 03:25:00,
2013-06-02 22:30:00,52.0,48.5,29.94,North,4,0.0,0.0,88,0.00,,,0.00,Custom v0.1,2013-06-03 03:30:00,
2013-06-02 22:35:00,51.9,48.4,29.94,North,4,0.0,0.0,88,0.00,,,0.00,Custom v0.1,2013-06-03 03:35:00,
2013-06-02 22:40:00,51.6,48.4,29.94,North,4,0.0,0.0,89,0.00,,,0.00,Custom v0.1,2013-06-03 03:40:00,
2013-06-02 22:45:00,51.4,48.2,29.94,North,4,0.0,0.0,89,0.00,,,0.00,Custom v0.1,2013-06-03 03:45:00,
2013-06-02 22:50:00,51.1,48.2,29.94,North,4,0.0,0.0,90,0.00,,,0.00,Custom v0.1,2013-06-03 03:50:00,
2013-06-02 22:55:00,51.0,48.1,29.94,North,4,0.0,0.0,90,0.00,,,0.00,Custom v0.1,2013-06-03 03:55:00,
2013-06-02 23:00:00,50.8,47.9,29.94,North,4,0.0,0.0,90,0.00,,,0.00,Custom v0.1,2013-06-03 04:00:00,
2013-06-02 23:05:00,50.7,48.1,29.94,North,4,0.0,0.0,91,0.00,,,0.00,Custom v0.1,2013-06-03 04:05:00,
2013-06-02 23:10:00,50.5,47.9,29.94,North,4,0.0,0.0,91,0.00,,,0.00,Custom v0.1,2013-06-03 04:10:00,
2013-06-02 23:15:00,50.2,47.9,29.94,North,4,0.0,0.0,92,0.00,,,0.00,Custom v0.1,2013-06-03 04:15:00,
2013-06-02 23:25:00,49.9,47.6,29.94,North,4,0.0,0.0,92,0.00,,,0.00,Custom v0.1,2013-06-03 04:25:00,
2013-06-02 23:30:00,49.8,47.5,29.94,North,4,0.0,0.0,92,0.00,,,0.00,Custom v0.1,2013-06-03 04:30:00,
2013-06-02 23:35:00,49.6,47.3,29.94,North,4,0.0,0.0,92,0.00,,,0.00,Custom v0.1,2013-06-03 04:35:00,
2013-06-02 23:40:00,49.5,47.2,29.94,North,4,0.0,0.0,92,0.00,,,0.00,Custom v0.1,2013-06-03 04:40:00,
2013-06-02 23:45:00,49.4,47.4,29.94,North,4,0.0,0.0,93,0.00,,,0.00,Custom v0.1,2013-06-03 04:45:00,
2013-06-02 23:55:00,49.4,47.4,29.94,North,4,0.0,0.0,93,0.00,,,0.00,Custom v0.1,2013-06-03 04:55:00,